Location: Passau
(48.5830°N, 13.4830°E)
Time: 05:42:42
(UTC+02:00)

Transit 2A - Visible Passes

Search period start: 01 August 2021 00:00
Search period end: 11 August 2021 00:00
Orbit: 598 x 960 km, 66.7° (Epoch: 31 July)

Date Brightness Start Highest point End Pass type
(mag) Time Alt. Az. Time Alt. Az. Time Alt. Az.
05 Aug 8.5 05:02:39 10° ESE 05:04:04 11° ESE 05:05:32 10° E visible
08 Aug 7.5 05:00:18 10° S 05:04:02 27° ESE 05:08:00 10° NE visible
09 Aug 8.0 04:26:58 10° SSE 04:30:03 19° ESE 04:33:19 10° ENE visible
10 Aug 8.2 03:54:14 10° SE 03:56:09 13° ESE 03:58:07 10° ENE visible
